STARLINK-36856

Last updated on Tue Mar 24 2026 00:02:05 GMT+0000 (Coordinated Universal Time)

1 67883U 26035E 26082.33785664 -.00053497 00000+0 -35964-3 0 9997 2 67883 97.2862 15.4353 0001657 127.0664 233.0752 15.75215117 5994
UTC large
Height (km)
Speed (km/s)
/
Latitude / Longitude
Inclination (degrees)
Orbital Period (minutes)
Azimuth
Elevation
Range (km)
Doppler Factor

Next 0 passes for location: London (51.5072 / 0.1276)

Sorry there are no passes over London.